User: anonymous   Login
Location: Elstree
(51.6403°N, 0.2969°W)
Time: 18:03:02
(UTC+00:00)
Language:

Cosmos 1354 Rocket - Orbit

View from above orbital plane
View from above orbital plane
View from above satellite
View from above satellite

Ground track
Ground track

The orbit data is extracted from the following two-line orbital elements,

1 13149U 82037B   21206.94268891  .00000076  00000-0  35610-4 0  9998
2 13149  74.0420  24.1552 0013713 223.5047 136.5024 14.35402889 52477
Epoch (UTC): 25 July 2021 22:37:28
Eccentricity: 0.0013713
inclination: 74.0420°
perigee height: 764 km
apogee height: 783 km
right ascension of ascending node: 24.1552°
argument of perigee: 223.5047°
revolutions per day: 14.35402889
mean anomaly at epoch: 136.5024°
orbit number at epoch: 5247

The dashed part of the orbit path shows where the satellite is in the earth's shadow,  

DLR